Regional Weather Roundup
Issued by NWS

Home | Current Version | Previous Version | Graphics & Text | Print | Product List | Glossary On
Versions: 1 2 3 4 5 6 7 8 9 10 11 12 13 14 15 16 17 18 19 20 21 22 23 24 25 26 27 28 29 30 31 32 33 34 35 36 37 38 39 40 41 42 43 44 45 46 47 48 49 50
000
ASUS43 KFSD 261110
RWRSD

WEATHER ROUNDUP FOR SOUTH DAKOTA
NATIONAL WEATHER SERVICE SIOUX FALLS SD
600 AM CDT TUE JUL 26 2016

NOTE: "FAIR" INDICATES FEW OR NO CLOUDS BELOW 12,000 FEET WITH NO
SIGNIFICANT WEATHER AND/OR OBSTRUCTIONS TO VISIBILITY.


SDZ001>005-009-010-012>017-261200-
NORTHWEST AND NORTH CENTRAL SOUTH DAKOTA

CITY           SKY/WX    TMP DP  RH WIND       PRES   REMARKS
BUFFALO          N/A     69  63  81 N15       29.93R
FAITH            N/A     68  60  75 S6        29.96S
MOBRIDGE       CLEAR     75  62  64 S12       29.92S
$$

SDZ012>016-024>037-041>051-057-063-072>074-261200-
SOUTHWEST AND SOUTH CENTRAL SOUTH DAKOTA

CITY           SKY/WX    TMP DP  RH WIND       PRES   REMARKS
RAPID CTY ARPT PTCLDY    67  60  78 SE7       29.99F
PIERRE         CLEAR     71  62  73 S6        29.95F
CUSTER         CLEAR     58  54  86 N5        30.15F
ELLSWORTH AFB  CLOUDY    73  63  69 S8        29.97
PHILIP         CLEAR     71  64  78 CALM      29.96S
PINE RIDGE     CLEAR     69  64  84 S16G23    30.01S
WINNER         FAIR      73  60  63 S17G25    30.01F
$$

SDZ004>011-016>023-039-040-261200-
NORTHEAST SOUTH DAKOTA

CITY           SKY/WX    TMP DP  RH WIND       PRES   REMARKS
ABERDEEN       CLOUDY    65  59  81 NE7       30.01R
WATERTOWN      CLEAR     68  62  81 S9        30.03R
BROOKINGS      CLEAR     66  62  87 S7        30.05S
SISSETON         N/A     75  62  64 W21G32    29.94R
$$

SDZ017-020-022-023-036>040-048>070-261200-
SOUTHEAST SOUTH DAKOTA

CITY           SKY/WX    TMP DP  RH WIND       PRES   REMARKS
SIOUX FALLS    PTCLDY    70  62  76 SW8       30.06S
HURON          CLEAR     65  61  87 SE9       30.00R
CHAMBERLAIN    CLEAR     73  64  73 S9        30.00S
MITCHELL       CLEAR     64  61  90 SE6       30.02F
YANKTON        CLEAR     64  61  88 E3        30.04F
$$

ABBREVIATIONS USED IN REMARKS
   TC - TEMPERATURE IN CELSIUS
  WCI - WIND CHILL INDEX
   HX - HEAT INDEX
  VSB - VISIBILITY




USA.gov is the U.S. government's official web portal to all federal, state and local government web resources and services.